Flag Weather past 2 weeks in Lanzhou, Gansu, China

Now
30 °F

Passing clouds.


Feels Like: 23 °F
Forecast: 24 / 34 °F
Wind: 8 mph from Northeast

Location: Lanzhou / Zhongchuan

Current Time: Nov 26, 2014 at 10:09:52 PM

Latest Report: Nov 26, 2014 at 9:00 PM


Visibility: N/A

Pressure: 30.07 "Hg

Humidity: 69%

Dew point: 21 °F

Location of LanzhouLocation

Historic Weather in Lanzhou — Graph

°F

Lanzhou temperature yesterday

Maximum temperature yesterday: 50 °F (at 3:00 PM)
Minimum temperature yesterday: 21 °F (at 3:00 AM)
Average temperature yesterday: 31 °F

Past Weeks' High & Low Weather Summary

 TemperatureHumidityPressure
High50 °F (Nov 25, 3:00 PM)100% (Nov 25, 5:00 AM)30.42 "Hg (Nov 25, 5:00 AM)
Low18 °F (Nov 16, 7:00 AM)30% (Nov 20, 12:00 PM)29.80 "Hg (Nov 25, 4:00 PM)
Average31 °F68%30.19 "Hg
* Reported Nov 11 9:00 PM — Nov 26 9:00 PM, Lanzhou, Weather by CustomWeather, © 2014

Note: Actual official high and low records may vary slightly from our data, if they occured in-between our weather recording intervals... More about our weather records

Advertising

Lanzhou weather history for previous 24 hours

 ConditionsComfort  
Time TempWeatherWind HumidityBarometerVisibility
9:00 PM
Nov 26
30 °FPassing clouds.8 mph69%30.07 "HgN/A
8:00 PM30 °FPassing clouds.6 mph69%30.04 "HgN/A
7:00 PM30 °FPassing clouds.3 mph64%30.01 "HgN/A
6:00 PM32 °FScattered clouds.6 mph55%30.01 "HgN/A
5:00 PM34 °FScattered clouds.8 mph51%29.98 "HgN/A
4:00 PM36 °FSunny.13 mph48%29.98 "Hg10 mi
3:00 PM36 °FPassing clouds.10 mph48%29.95 "HgN/A
2:00 PM36 °FPassing clouds.8 mph48%29.98 "HgN/A
1:00 PM37 °FSunny.10 mph41%29.98 "Hg10 mi
12:00 PM37 °FPassing clouds.8 mph41%30.01 "HgN/A
11:00 AM36 °FPassing clouds.8 mph44%30.04 "HgN/A
10:00 AM30 °FClear.1 mph69%30.01 "Hg4 mi
9:00 AM27 °FIce fog.3 mph86%30.01 "Hg3 mi
8:00 AM23 °FIce fog.3 mph86%29.98 "Hg3 mi
7:00 AM25 °FIce fog.1 mph80%29.95 "Hg3 mi
6:00 AM30 °FIce fog.1 mph75%29.92 "Hg3 mi
5:00 AM34 °FClear.8 mph48%29.89 "Hg10 mi
4:00 AM32 °FClear.3 mph69%29.89 "Hg5 mi
3:00 AM32 °FClear.1 mph69%29.89 "Hg10 mi
2:00 AM30 °FClear.6 mph75%29.86 "Hg10 mi
1:00 AM32 °FIce fog.6 mph75%29.86 "Hg3 mi
12:00 AM30 °FIce fog.3 mph80%29.83 "Hg2 mi
11:00 PM
Nov 25
32 °FIce fog.8 mph80%29.83 "Hg2 mi
10:00 PM28 °FIce fog.8 mph86%29.83 "Hg2 mi
Weather by CustomWeather, © 2014

See weather overviewHow to use our weather pages